Hourly Data Report for September 26, 2017

All times are specified in Local Standard Time (LST). Add 1 hour to adjust for Daylight Saving Time where and when it is observed.

SUSSEX FOUR CORNERS
NEW BRUNSWICK

45°44'30.048" N
65°31'44.039" W
47.00 m
8105210
71656
ASF

Download Data

Hourly Data (September 2017)
Hourly Data Report for September 26, 2017
Temp Definition
°C
Dew Point Temp Definition
°C
Rel Hum Definition
%
Wind Dir Definition
10's deg

Wind Spd Definition
km/h
Visibility Definition
km
Stn Press Definition
kPa
Hmdx Definition


Wind Chill Definition


Weather Definition


TIME
00:00 17.0 16.2 95 22 11   100.88     LegendNANA
01:00 16.9 16.2 96 24 10   100.86     LegendNANA
02:00 16.3 15.8 97 26 12   100.84     LegendNANA
03:00 16.5 16.1 97 23 11   100.83     LegendNANA
04:00 16.5 16.2 98 24 13   100.85     LegendNANA
05:00 16.8 16.3 97 23 10   100.83     LegendNANA
06:00 16.5 15.8 96 22 13   100.81     LegendNANA
07:00 16.5 15.8 95 23 10   100.82     LegendNANA
08:00 17.6 16.4 93 23 14   100.81     LegendNANA
09:00 18.9 16.9 88 23 15   100.82     LegendNANA
10:00 22.8 18.6 77 21 15   100.80 29   LegendNANA
11:00 24.9 19.0 70 21 18   100.77 32   LegendNANA
12:00 26.1 19.5 67 21 23   100.72 33   LegendNANA
13:00 27.3 20.1 65 21 20   100.68 35   LegendNANA
14:00 28.0 20.4 63 20 21   100.65 36   LegendNANA
15:00 28.3 19.9 60 21 19   100.64 36   LegendNANA
16:00 27.7 20.0 63 21 19   100.62 35   LegendNANA
17:00 26.0 19.7 68 22 19   100.62 33   LegendNANA
18:00 23.7 18.9 75 22 22   100.66 30   LegendNANA
19:00 18.2 15.5 85 3 22   100.85     LegendNANA
20:00 17.1 14.6 85 4 14   100.90     LegendNANA
21:00 16.1 13.2 83 4 17   100.92     LegendNANA
22:00 15.3 12.9 85 4 13   100.96     LegendNANA
23:00 15.1 13.6 91 4 12   100.99     LegendNANA

Notes on Data Quality.

Legend

  • E = Estimated
  • M = Missing
  • NA = Not Available
  • ‡ = Partner data that is not subject to review by the National Climate Archives
Date modified: